Time,TemperatureF,DewpointF,PressureIn,WindDirection,WindDirectionDegrees,WindSpeedMPH,WindSpeedGustMPH,Humidity,HourlyPrecipIn,Conditions,Clouds,dailyrainin,SoftwareType,DateUTC
2013-03-29 00:00:00,41.8,30.5,30.08,NW,313,0.0,0.0,64,0.00,,---,0.00,VWS V14.01,2013-03-29 04:00:00,
2013-03-29 00:01:00,41.8,30.5,30.09,NW,313,2.0,2.0,64,0.00,,---,0.00,VWS V14.01,2013-03-29 04:01:00,
2013-03-29 00:04:00,41.8,30.5,30.09,NW,313,0.0,0.0,64,0.00,,---,0.00,VWS V14.01,2013-03-29 04:04:00,
2013-03-29 00:09:00,41.9,31.0,30.09,NW,313,0.0,0.0,65,0.00,,---,0.00,VWS V14.01,2013-03-29 04:09:00,
2013-03-29 00:14:00,41.8,31.3,30.09,NW,313,0.0,2.0,66,0.00,,---,0.00,VWS V14.01,2013-03-29 04:14:00,
2013-03-29 00:19:00,41.8,31.3,30.09,West,272,1.0,2.0,66,0.00,,---,0.00,VWS V14.01,2013-03-29 04:19:00,
2013-03-29 00:25:00,41.8,30.9,30.09,WNW,302,2.0,3.0,65,0.00,,---,0.00,VWS V14.01,2013-03-29 04:25:00,
2013-03-29 00:27:00,41.8,30.9,30.09,NW,313,0.0,0.0,65,0.00,,---,0.00,VWS V14.01,2013-03-29 04:27:00,
2013-03-29 00:32:00,41.9,31.0,30.09,NW,313,1.0,3.0,65,0.00,,---,0.00,VWS V14.01,2013-03-29 04:32:00,
2013-03-29 00:38:00,42.1,30.8,30.09,NW,321,2.0,2.0,64,0.00,,---,0.00,VWS V14.01,2013-03-29 04:38:00,
2013-03-29 00:43:00,42.2,30.9,30.09,NW,324,1.0,3.0,64,0.00,,---,0.00,VWS V14.01,2013-03-29 04:43:00,
2013-03-29 00:48:00,42.2,30.9,30.09,NW,325,0.0,3.0,64,0.00,,---,0.00,VWS V14.01,2013-03-29 04:48:00,
2013-03-29 00:54:00,42.2,30.9,30.09,NW,324,0.0,2.0,64,0.00,,---,0.00,VWS V14.01,2013-03-29 04:54:00,
2013-03-29 00:59:00,42.2,30.9,30.09,NNW,329,0.0,0.0,64,0.00,,---,0.00,VWS V14.01,2013-03-29 04:59:00,
2013-03-29 01:04:00,42.1,30.8,30.09,NW,312,1.0,6.0,64,0.00,,---,0.00,VWS V14.01,2013-03-29 05:04:00,
2013-03-29 01:09:00,42.1,30.8,30.09,NW,312,0.0,1.0,64,0.00,,---,0.00,VWS V14.01,2013-03-29 05:09:00,
2013-03-29 01:15:00,42.1,30.8,30.09,NW,313,0.0,3.0,64,0.00,,---,0.00,VWS V14.01,2013-03-29 05:15:00,
2013-03-29 01:21:00,42.1,30.4,30.09,NW,316,0.0,3.0,63,0.00,,---,0.00,VWS V14.01,2013-03-29 05:21:00,
2013-03-29 01:27:00,42.1,30.4,30.09,WNW,291,2.0,2.0,63,0.00,,---,0.00,VWS V14.01,2013-03-29 05:27:00,
2013-03-29 01:32:00,42.1,30.0,30.09,WNW,294,1.0,3.0,62,0.00,,---,0.00,VWS V14.01,2013-03-29 05:32:00,
2013-03-29 01:37:00,42.1,30.0,30.09,SE,138,1.0,3.0,62,0.00,,---,0.00,VWS V14.01,2013-03-29 05:37:00,
2013-03-29 01:43:00,41.9,30.2,30.09,NW,319,2.0,3.0,63,0.00,,---,0.00,VWS V14.01,2013-03-29 05:43:00,
2013-03-29 01:48:00,41.8,29.8,30.09,NW,309,1.0,4.0,62,0.00,,---,0.00,VWS V14.01,2013-03-29 05:48:00,
2013-03-29 01:53:00,41.8,29.8,30.09,NNW,327,0.0,0.0,62,0.00,,---,0.00,VWS V14.01,2013-03-29 05:53:00,
2013-03-29 01:58:00,41.6,29.6,30.10,NW,315,0.0,2.0,62,0.00,,---,0.00,VWS V14.01,2013-03-29 05:58:00,
2013-03-29 02:03:00,41.6,29.6,30.09,NW,315,0.0,2.0,62,0.00,,---,0.00,VWS V14.01,2013-03-29 06:03:00,
2013-03-29 02:08:00,41.6,29.6,30.09,NW,315,0.0,2.0,62,0.00,,---,0.00,VWS V14.01,2013-03-29 06:08:00,
2013-03-29 02:13:00,41.6,29.6,30.09,NW,315,0.0,1.0,62,0.00,,---,0.00,VWS V14.01,2013-03-29 06:13:00,
2013-03-29 02:18:00,41.6,29.6,30.09,NW,315,0.0,2.0,62,0.00,,---,0.00,VWS V14.01,2013-03-29 06:18:00,
2013-03-29 02:24:00,41.6,29.2,30.09,NW,315,0.0,1.0,61,0.00,,---,0.00,VWS V14.01,2013-03-29 06:24:00,
2013-03-29 02:29:00,41.6,29.2,30.09,NW,315,2.0,3.0,61,0.00,,---,0.00,VWS V14.01,2013-03-29 06:29:00,
2013-03-29 02:34:00,41.6,29.2,30.09,NW,315,0.0,1.0,61,0.00,,---,0.00,VWS V14.01,2013-03-29 06:34:00,
2013-03-29 02:39:00,41.5,28.7,30.09,NW,304,2.0,2.0,60,0.00,,---,0.00,VWS V14.01,2013-03-29 06:39:00,
2013-03-29 02:44:00,41.5,28.3,30.09,West,271,0.0,2.0,59,0.00,,---,0.00,VWS V14.01,2013-03-29 06:44:00,
2013-03-29 02:49:00,41.6,28.4,30.09,NW,319,2.0,4.0,59,0.00,,---,0.00,VWS V14.01,2013-03-29 06:49:00,
2013-03-29 02:54:00,41.6,27.9,30.09,NW,305,1.0,3.0,58,0.00,,---,0.00,VWS V14.01,2013-03-29 06:54:00,
2013-03-29 02:59:00,41.6,27.9,30.10,West,270,1.0,3.0,58,0.00,,---,0.00,VWS V14.01,2013-03-29 06:59:00,
2013-03-29 03:04:00,41.5,27.4,30.09,NW,315,0.0,2.0,57,0.00,,---,0.00,VWS V14.01,2013-03-29 07:04:00,
2013-03-29 03:09:00,41.5,27.8,30.10,WNW,288,3.0,3.0,58,0.00,,---,0.00,VWS V14.01,2013-03-29 07:09:00,
2013-03-29 03:14:00,41.3,27.2,30.10,WNW,299,3.0,3.0,57,0.00,,---,0.00,VWS V14.01,2013-03-29 07:14:00,
2013-03-29 03:19:00,41.2,27.6,30.10,West,273,0.0,3.0,58,0.00,,---,0.00,VWS V14.01,2013-03-29 07:19:00,
2013-03-29 03:25:00,40.9,27.3,30.10,NW,306,0.0,2.0,58,0.00,,---,0.00,VWS V14.01,2013-03-29 07:25:00,
2013-03-29 03:30:00,40.8,27.6,30.10,NNW,344,2.0,2.0,59,0.00,,---,0.00,VWS V14.01,2013-03-29 07:30:00,
2013-03-29 03:36:00,40.5,27.3,30.10,West,279,3.0,4.0,59,0.00,,---,0.00,VWS V14.01,2013-03-29 07:36:00,
2013-03-29 03:42:00,40.2,27.0,30.10,WNW,290,2.0,3.0,59,0.00,,---,0.00,VWS V14.01,2013-03-29 07:42:00,
2013-03-29 03:47:00,40.1,27.4,30.09,WNW,292,0.0,3.0,60,0.00,,---,0.00,VWS V14.01,2013-03-29 07:47:00,
2013-03-29 03:52:00,39.8,27.1,30.10,WNW,283,0.0,2.0,60,0.00,,---,0.00,VWS V14.01,2013-03-29 07:52:00,
2013-03-29 03:58:00,39.6,26.9,30.10,WNW,283,0.0,0.0,60,0.00,,---,0.00,VWS V14.01,2013-03-29 07:58:00,
2013-03-29 04:04:00,39.3,27.0,30.10,WNW,283,2.0,2.0,61,0.00,,---,0.00,VWS V14.01,2013-03-29 08:04:00,
2013-03-29 04:09:00,39.2,26.9,30.09,WNW,283,2.0,2.0,61,0.00,,---,0.00,VWS V14.01,2013-03-29 08:09:00,
2013-03-29 04:14:00,38.9,27.0,30.09,WNW,283,0.0,0.0,62,0.00,,---,0.00,VWS V14.01,2013-03-29 08:14:00,
2013-03-29 04:19:00,38.8,26.9,30.09,NNE,19,0.0,1.0,62,0.00,,---,0.00,VWS V14.01,2013-03-29 08:19:00,
2013-03-29 04:24:00,38.5,27.0,30.09,NNW,331,0.0,0.0,63,0.00,,---,0.00,VWS V14.01,2013-03-29 08:24:00,
2013-03-29 04:29:00,38.3,26.8,30.09,NNW,331,0.0,0.0,63,0.00,,---,0.00,VWS V14.01,2013-03-29 08:29:00,
2013-03-29 04:34:00,38.2,27.1,30.09,NNW,331,0.0,0.0,64,0.00,,---,0.00,VWS V14.01,2013-03-29 08:34:00,
2013-03-29 04:39:00,37.9,26.8,30.09,NNW,331,0.0,0.0,64,0.00,,---,0.00,VWS V14.01,2013-03-29 08:39:00,
2013-03-29 04:44:00,37.8,26.7,30.09,NNW,331,0.0,2.0,64,0.00,,---,0.00,VWS V14.01,2013-03-29 08:44:00,
2013-03-29 04:49:00,37.6,26.5,30.09,NNW,331,0.0,0.0,64,0.00,,---,0.00,VWS V14.01,2013-03-29 08:49:00,
2013-03-29 04:54:00,37.6,26.5,30.09,NNW,331,0.0,0.0,64,0.00,,---,0.00,VWS V14.01,2013-03-29 08:54:00,
2013-03-29 04:59:00,37.5,26.8,30.09,NNW,331,0.0,0.0,65,0.00,,---,0.00,VWS V14.01,2013-03-29 08:59:00,
2013-03-29 05:04:00,37.3,26.6,30.09,NNW,331,0.0,0.0,65,0.00,,---,0.00,VWS V14.01,2013-03-29 09:04:00,
2013-03-29 05:09:00,37.3,26.6,30.09,NNW,331,0.0,0.0,65,0.00,,---,0.00,VWS V14.01,2013-03-29 09:09:00,
2013-03-29 05:14:00,37.2,26.5,30.09,NNW,331,0.0,0.0,65,0.00,,---,0.00,VWS V14.01,2013-03-29 09:14:00,
2013-03-29 05:19:00,37.2,26.5,30.09,NNW,331,0.0,0.0,65,0.00,,---,0.00,VWS V14.01,2013-03-29 09:19:00,
2013-03-29 05:24:00,37.0,26.3,30.09,NNW,331,0.0,3.0,65,0.00,,---,0.00,VWS V14.01,2013-03-29 09:24:00,
2013-03-29 05:29:00,36.9,26.2,30.09,NNW,331,0.0,0.0,65,0.00,,---,0.00,VWS V14.01,2013-03-29 09:29:00,
2013-03-29 05:34:00,36.9,26.2,30.09,NNW,331,0.0,0.0,65,0.00,,---,0.00,VWS V14.01,2013-03-29 09:34:00,
2013-03-29 05:39:00,36.8,26.1,30.09,NNW,331,0.0,1.0,65,0.00,,---,0.00,VWS V14.01,2013-03-29 09:39:00,
2013-03-29 05:44:00,36.6,26.3,30.09,NNW,331,0.0,2.0,66,0.00,,---,0.00,VWS V14.01,2013-03-29 09:44:00,
2013-03-29 05:49:00,36.6,26.3,30.09,NNW,331,0.0,0.0,66,0.00,,---,0.00,VWS V14.01,2013-03-29 09:49:00,
2013-03-29 05:54:00,36.5,26.2,30.09,NNW,331,0.0,0.0,66,0.00,,---,0.00,VWS V14.01,2013-03-29 09:54:00,
2013-03-29 05:59:00,36.5,26.2,30.09,NNW,331,2.0,2.0,66,0.00,,---,0.00,VWS V14.01,2013-03-29 09:59:00,
2013-03-29 06:04:00,36.5,26.2,30.09,NNW,331,0.0,0.0,66,0.00,,---,0.00,VWS V14.01,2013-03-29 10:04:00,
2013-03-29 06:09:00,36.5,26.2,30.09,NNW,331,0.0,1.0,66,0.00,,---,0.00,VWS V14.01,2013-03-29 10:09:00,
2013-03-29 06:14:00,36.3,26.0,30.09,West,267,0.0,1.0,66,0.00,,---,0.00,VWS V14.01,2013-03-29 10:14:00,
2013-03-29 06:19:00,36.3,26.0,30.09,West,267,0.0,0.0,66,0.00,,---,0.00,VWS V14.01,2013-03-29 10:19:00,
2013-03-29 06:24:00,36.2,26.3,30.10,West,267,0.0,0.0,67,0.00,,---,0.00,VWS V14.01,2013-03-29 10:24:00,
2013-03-29 06:29:00,36.2,26.3,30.09,West,267,0.0,1.0,67,0.00,,---,0.00,VWS V14.01,2013-03-29 10:29:00,
2013-03-29 06:34:00,36.0,26.1,30.10,West,267,0.0,0.0,67,0.00,,---,0.00,VWS V14.01,2013-03-29 10:34:00,
2013-03-29 06:40:00,36.0,26.1,30.09,WNW,303,0.0,1.0,67,0.00,,---,0.00,VWS V14.01,2013-03-29 10:40:00,
2013-03-29 06:45:00,36.0,26.1,30.10,WNW,303,0.0,2.0,67,0.00,,---,0.00,VWS V14.01,2013-03-29 10:45:00,
2013-03-29 06:50:00,36.0,26.1,30.10,WNW,303,0.0,0.0,67,0.00,,---,0.00,VWS V14.01,2013-03-29 10:50:00,
2013-03-29 06:55:00,36.0,26.1,30.10,WNW,303,0.0,0.0,67,0.00,,---,0.00,VWS V14.01,2013-03-29 10:55:00,
2013-03-29 07:00:00,36.0,26.1,30.10,NNW,338,0.0,2.0,67,0.00,,---,0.00,VWS V14.01,2013-03-29 11:00:00,
2013-03-29 07:05:00,35.9,26.0,30.10,NNW,338,0.0,0.0,67,0.00,,---,0.00,VWS V14.01,2013-03-29 11:05:00,
2013-03-29 07:10:00,35.9,26.0,30.10,NNW,338,0.0,0.0,67,0.00,,---,0.00,VWS V14.01,2013-03-29 11:10:00,
2013-03-29 07:15:00,35.9,26.0,30.10,NNW,338,0.0,0.0,67,0.00,,---,0.00,VWS V14.01,2013-03-29 11:15:00,
2013-03-29 07:21:00,35.8,26.3,30.10,NNW,338,0.0,0.0,68,0.00,,---,0.00,VWS V14.01,2013-03-29 11:21:00,
2013-03-29 07:26:00,35.9,26.0,30.10,NNW,338,0.0,0.0,67,0.00,,---,0.00,VWS V14.01,2013-03-29 11:26:00,
2013-03-29 07:31:00,35.9,26.4,30.10,NNW,338,0.0,0.0,68,0.00,,---,0.00,VWS V14.01,2013-03-29 11:31:00,
2013-03-29 07:36:00,36.0,26.1,30.11,NNW,338,0.0,0.0,67,0.00,,---,0.00,VWS V14.01,2013-03-29 11:36:00,
2013-03-29 07:41:00,36.2,26.3,30.11,NNW,338,0.0,0.0,67,0.00,,---,0.00,VWS V14.01,2013-03-29 11:41:00,
2013-03-29 07:46:00,36.3,26.4,30.10,NNW,346,4.0,4.0,67,0.00,,---,0.00,VWS V14.01,2013-03-29 11:46:00,
2013-03-29 07:51:00,36.5,26.6,30.10,NNW,331,0.0,0.0,67,0.00,,---,0.00,VWS V14.01,2013-03-29 11:51:00,
2013-03-29 07:56:00,36.6,26.3,30.11,NNW,331,0.0,1.0,66,0.00,,---,0.00,VWS V14.01,2013-03-29 11:56:00,
2013-03-29 08:02:00,36.9,26.6,30.11,NNW,331,0.0,0.0,66,0.00,,---,0.00,VWS V14.01,2013-03-29 12:02:00,
2013-03-29 08:07:00,37.0,26.7,30.11,NNW,329,0.0,1.0,66,0.00,,---,0.00,VWS V14.01,2013-03-29 12:07:00,
2013-03-29 08:12:00,37.3,26.6,30.11,NW,313,0.0,2.0,65,0.00,,---,0.00,VWS V14.01,2013-03-29 12:12:00,
2013-03-29 08:17:00,37.8,27.1,30.11,West,265,3.0,4.0,65,0.00,,---,0.00,VWS V14.01,2013-03-29 12:17:00,
2013-03-29 08:23:00,38.2,27.1,30.11,NW,311,1.0,1.0,64,0.00,,---,0.00,VWS V14.01,2013-03-29 12:23:00,
2013-03-29 08:28:00,38.5,27.0,30.11,NNW,328,1.0,2.0,63,0.00,,---,0.00,VWS V14.01,2013-03-29 12:28:00,
2013-03-29 08:34:00,38.9,27.0,30.11,NW,323,0.0,1.0,62,0.00,,---,0.00,VWS V14.01,2013-03-29 12:34:00,
2013-03-29 08:39:00,39.2,27.3,30.11,NW,317,0.0,0.0,62,0.00,,---,0.00,VWS V14.01,2013-03-29 12:39:00,
2013-03-29 08:44:00,39.5,27.2,30.12,NNE,28,4.0,5.0,61,0.00,,---,0.00,VWS V14.01,2013-03-29 12:44:00,
2013-03-29 08:50:00,39.9,27.2,30.11,WNW,300,1.0,4.0,60,0.00,,---,0.00,VWS V14.01,2013-03-29 12:50:00,
2013-03-29 08:55:00,40.3,27.5,30.12,SW,219,4.0,4.0,60,0.00,,---,0.00,VWS V14.01,2013-03-29 12:55:00,
2013-03-29 09:00:00,40.8,27.2,30.12,SW,229,2.0,5.0,58,0.00,,---,0.00,VWS V14.01,2013-03-29 13:00:00,
2013-03-29 09:05:00,41.1,27.0,30.12,West,275,2.0,4.0,57,0.00,,---,0.00,VWS V14.01,2013-03-29 13:05:00,
2013-03-29 09:12:00,41.5,27.0,30.12,West,273,4.0,4.0,56,0.00,,---,0.00,VWS V14.01,2013-03-29 13:12:00,
2013-03-29 09:18:00,41.8,27.3,30.11,NW,306,1.0,4.0,56,0.00,,---,0.00,VWS V14.01,2013-03-29 13:18:00,
2013-03-29 09:23:00,42.1,27.1,30.11,NW,304,2.0,4.0,55,0.00,,---,0.00,VWS V14.01,2013-03-29 13:23:00,
2013-03-29 09:29:00,42.5,27.5,30.12,NW,309,2.0,5.0,55,0.00,,---,0.00,VWS V14.01,2013-03-29 13:29:00,
2013-03-29 09:34:00,42.8,27.3,30.11,WNW,292,3.0,4.0,54,0.00,,---,0.00,VWS V14.01,2013-03-29 13:34:00,
2013-03-29 09:40:00,43.1,27.6,30.11,WSW,245,1.0,4.0,54,0.00,,---,0.00,VWS V14.01,2013-03-29 13:40:00,
2013-03-29 09:46:00,43.5,27.5,30.11,NW,314,0.0,3.0,53,0.00,,---,0.00,VWS V14.01,2013-03-29 13:46:00,
2013-03-29 09:51:00,43.8,27.8,30.11,WNW,297,1.0,1.0,53,0.00,,---,0.00,VWS V14.01,2013-03-29 13:51:00,
2013-03-29 09:57:00,44.2,27.2,30.11,NW,311,1.0,9.0,51,0.00,,---,0.00,VWS V14.01,2013-03-29 13:57:00,
2013-03-29 10:02:00,44.5,27.0,30.11,WNW,288,2.0,3.0,50,0.00,,---,0.00,VWS V14.01,2013-03-29 14:02:00,
2013-03-29 10:07:00,44.6,27.1,30.11,West,259,2.0,4.0,50,0.00,,---,0.00,VWS V14.01,2013-03-29 14:07:00,
2013-03-29 10:12:00,45.1,27.6,30.11,WNW,298,0.0,5.0,50,0.00,,---,0.00,VWS V14.01,2013-03-29 14:12:00,
2013-03-29 10:17:00,45.4,27.4,30.11,WSW,240,6.0,6.0,49,0.00,,---,0.00,VWS V14.01,2013-03-29 14:17:00,
2013-03-29 10:22:00,45.5,27.5,30.11,West,281,1.0,4.0,49,0.00,,---,0.00,VWS V14.01,2013-03-29 14:22:00,
2013-03-29 10:28:00,45.8,27.7,30.11,WNW,285,3.0,6.0,49,0.00,,---,0.00,VWS V14.01,2013-03-29 14:28:00,
2013-03-29 10:33:00,46.2,27.1,30.11,NNW,333,0.0,2.0,47,0.00,,---,0.00,VWS V14.01,2013-03-29 14:33:00,
2013-03-29 10:39:00,46.8,27.6,30.11,NW,312,3.0,4.0,47,0.00,,---,0.00,VWS V14.01,2013-03-29 14:39:00,
2013-03-29 10:44:00,47.4,27.7,30.11,WNW,296,2.0,5.0,46,0.00,,---,0.00,VWS V14.01,2013-03-29 14:44:00,
2013-03-29 10:49:00,47.6,27.9,30.11,NW,304,4.0,4.0,46,0.00,,---,0.00,VWS V14.01,2013-03-29 14:49:00,
2013-03-29 10:55:00,48.0,27.7,30.10,WNW,299,0.0,4.0,45,0.00,,---,0.00,VWS V14.01,2013-03-29 14:55:00,
2013-03-29 11:00:00,48.5,28.1,30.10,WNW,284,1.0,2.0,45,0.00,,---,0.00,VWS V14.01,2013-03-29 15:00:00,
2013-03-29 11:05:00,48.9,28.0,30.10,WSW,254,3.0,5.0,44,0.00,,---,0.00,VWS V14.01,2013-03-29 15:05:00,
2013-03-29 11:11:00,49.2,27.1,30.10,ENE,57,0.0,4.0,42,0.00,,---,0.00,VWS V14.01,2013-03-29 15:11:00,
2013-03-29 11:16:00,49.5,27.4,30.10,NNW,331,3.0,4.0,42,0.00,,---,0.00,VWS V14.01,2013-03-29 15:16:00,
2013-03-29 11:22:00,49.5,27.4,30.10,West,266,0.0,4.0,42,0.00,,---,0.00,VWS V14.01,2013-03-29 15:22:00,
2013-03-29 11:27:00,49.8,28.2,30.10,NNW,344,3.0,3.0,43,0.00,,---,0.00,VWS V14.01,2013-03-29 15:27:00,
2013-03-29 11:32:00,50.5,26.5,30.10,WNW,296,0.0,3.0,39,0.00,,---,0.00,VWS V14.01,2013-03-29 15:32:00,
2013-03-29 11:37:00,51.0,27.5,30.10,WNW,282,0.0,4.0,40,0.00,,---,0.00,VWS V14.01,2013-03-29 15:37:00,
2013-03-29 11:42:00,51.3,26.6,30.10,WNW,303,2.0,5.0,38,0.00,,---,0.00,VWS V14.01,2013-03-29 15:42:00,
2013-03-29 11:47:00,51.3,26.6,30.09,NNW,331,0.0,4.0,38,0.00,,---,0.00,VWS V14.01,2013-03-29 15:47:00,
2013-03-29 11:52:00,51.3,25.9,30.09,NW,306,1.0,3.0,37,0.00,,---,0.00,VWS V14.01,2013-03-29 15:52:00,
2013-03-29 11:57:00,51.7,26.3,30.09,NNW,337,4.0,5.0,37,0.00,,---,0.00,VWS V14.01,2013-03-29 15:57:00,
2013-03-29 12:02:00,52.2,26.7,30.09,WNW,300,0.0,0.0,37,0.00,,---,0.00,VWS V14.01,2013-03-29 16:02:00,
2013-03-29 12:07:00,52.6,26.4,30.09,NW,305,0.0,4.0,36,0.00,,---,0.00,VWS V14.01,2013-03-29 16:07:00,
2013-03-29 12:13:00,53.1,28.2,30.09,WNW,292,2.0,2.0,38,0.00,,---,0.00,VWS V14.01,2013-03-29 16:13:00,
2013-03-29 12:18:00,53.2,26.3,30.09,WSW,242,3.0,4.0,35,0.00,,---,0.00,VWS V14.01,2013-03-29 16:18:00,
2013-03-29 12:23:00,52.5,25.7,30.08,NW,313,1.0,4.0,35,0.00,,---,0.00,VWS V14.01,2013-03-29 16:23:00,
2013-03-29 12:28:00,52.9,25.3,30.08,NW,313,0.0,1.0,34,0.00,,---,0.00,VWS V14.01,2013-03-29 16:28:00,
2013-03-29 12:33:00,53.5,26.5,30.08,NW,321,3.0,6.0,35,0.00,,---,0.00,VWS V14.01,2013-03-29 16:33:00,
2013-03-29 12:39:00,53.5,25.1,30.08,West,277,3.0,7.0,33,0.00,,---,0.00,VWS V14.01,2013-03-29 16:39:00,
2013-03-29 12:44:00,52.8,25.9,30.08,WNW,290,4.0,4.0,35,0.00,,---,0.00,VWS V14.01,2013-03-29 16:44:00,
2013-03-29 12:49:00,52.8,25.2,30.08,West,277,1.0,4.0,34,0.00,,---,0.00,VWS V14.01,2013-03-29 16:49:00,
2013-03-29 12:54:00,52.8,25.9,30.07,NW,325,4.0,4.0,35,0.00,,---,0.00,VWS V14.01,2013-03-29 16:54:00,
2013-03-29 12:59:00,52.9,26.0,30.07,NW,323,0.0,4.0,35,0.00,,---,0.00,VWS V14.01,2013-03-29 16:59:00,
2013-03-29 13:05:00,53.9,25.5,30.07,SSW,210,2.0,4.0,33,0.00,,---,0.00,VWS V14.01,2013-03-29 17:05:00,
2013-03-29 13:10:00,54.5,25.3,30.07,WSW,241,0.0,3.0,32,0.00,,---,0.00,VWS V14.01,2013-03-29 17:10:00,
2013-03-29 13:15:00,54.5,25.3,30.07,West,273,3.0,4.0,32,0.00,,---,0.00,VWS V14.01,2013-03-29 17:15:00,
2013-03-29 13:20:00,53.6,23.7,30.07,West,275,0.0,0.0,31,0.00,,---,0.00,VWS V14.01,2013-03-29 17:20:00,
2013-03-29 13:27:00,51.9,23.0,30.07,West,273,3.0,6.0,32,0.00,,---,0.00,VWS V14.01,2013-03-29 17:27:00,
2013-03-29 13:33:00,51.3,24.6,30.06,SSW,200,3.0,7.0,35,0.00,,---,0.00,VWS V14.01,2013-03-29 17:33:00,
2013-03-29 13:38:00,51.6,24.9,30.06,SW,214,3.0,5.0,35,0.00,,---,0.00,VWS V14.01,2013-03-29 17:38:00,
2013-03-29 13:43:00,52.2,24.7,30.06,SSW,194,1.0,6.0,34,0.00,,---,0.00,VWS V14.01,2013-03-29 17:43:00,
2013-03-29 13:48:00,52.6,25.0,30.05,WSW,250,1.0,2.0,34,0.00,,---,0.00,VWS V14.01,2013-03-29 17:48:00,
2013-03-29 13:53:00,53.6,25.9,30.05,West,273,2.0,5.0,34,0.00,,---,0.00,VWS V14.01,2013-03-29 17:53:00,
2013-03-29 13:58:00,54.2,25.0,30.05,West,279,3.0,4.0,32,0.00,,---,0.00,VWS V14.01,2013-03-29 17:58:00,
2013-03-29 14:03:00,54.1,24.9,30.05,WNW,292,1.0,4.0,32,0.00,,---,0.00,VWS V14.01,2013-03-29 18:03:00,
2013-03-29 14:09:00,53.1,24.8,30.05,WSW,252,2.0,3.0,33,0.00,,---,0.00,VWS V14.01,2013-03-29 18:09:00,
2013-03-29 14:14:00,52.3,24.8,30.05,SW,224,5.0,5.0,34,0.00,,---,0.00,VWS V14.01,2013-03-29 18:14:00,
2013-03-29 14:19:00,51.7,23.5,30.05,West,277,2.0,4.0,33,0.00,,---,0.00,VWS V14.01,2013-03-29 18:19:00,
2013-03-29 14:25:00,51.4,24.7,30.04,West,263,3.0,4.0,35,0.00,,---,0.00,VWS V14.01,2013-03-29 18:25:00,
2013-03-29 14:30:00,51.4,24.7,30.04,WNW,302,0.0,3.0,35,0.00,,---,0.00,VWS V14.01,2013-03-29 18:30:00,
2013-03-29 14:35:00,51.3,23.2,30.04,West,271,0.0,0.0,33,0.00,,---,0.00,VWS V14.01,2013-03-29 18:35:00,
2013-03-29 14:40:00,51.6,23.5,30.04,WNW,301,3.0,4.0,33,0.00,,---,0.00,VWS V14.01,2013-03-29 18:40:00,
2013-03-29 14:45:00,51.6,24.2,30.03,WSW,250,0.0,3.0,34,0.00,,---,0.00,VWS V14.01,2013-03-29 18:45:00,
2013-03-29 14:50:00,51.7,25.0,30.03,WNW,284,3.0,5.0,35,0.00,,---,0.00,VWS V14.01,2013-03-29 18:50:00,
2013-03-29 14:55:00,52.0,23.8,30.03,West,277,3.0,3.0,33,0.00,,---,0.00,VWS V14.01,2013-03-29 18:55:00,
2013-03-29 15:01:00,52.3,24.1,30.03,West,279,0.0,4.0,33,0.00,,---,0.00,VWS V14.01,2013-03-29 19:01:00,
2013-03-29 15:06:00,52.5,23.5,30.03,NW,318,1.0,1.0,32,0.00,,---,0.00,VWS V14.01,2013-03-29 19:06:00,
2013-03-29 15:11:00,52.8,23.8,30.03,West,269,3.0,6.0,32,0.00,,---,0.00,VWS V14.01,2013-03-29 19:11:00,
2013-03-29 15:16:00,52.8,24.5,30.03,SW,223,1.0,6.0,33,0.00,,---,0.00,VWS V14.01,2013-03-29 19:16:00,
2013-03-29 15:21:00,52.3,22.6,30.03,WSW,257,3.0,3.0,31,0.00,,---,0.00,VWS V14.01,2013-03-29 19:21:00,
2013-03-29 15:26:00,51.9,24.4,30.03,West,261,3.0,3.0,34,0.00,,---,0.00,VWS V14.01,2013-03-29 19:26:00,
2013-03-29 15:32:00,51.6,24.2,30.03,WSW,238,1.0,5.0,34,0.00,,---,0.00,VWS V14.01,2013-03-29 19:32:00,
2013-03-29 15:37:00,51.4,25.4,30.03,WNW,293,1.0,4.0,36,0.00,,---,0.00,VWS V14.01,2013-03-29 19:37:00,
2013-03-29 15:42:00,51.3,24.6,30.03,West,262,2.0,4.0,35,0.00,,---,0.00,VWS V14.01,2013-03-29 19:42:00,
2013-03-29 15:47:00,51.1,24.4,30.03,WSW,240,1.0,2.0,35,0.00,,---,0.00,VWS V14.01,2013-03-29 19:47:00,
2013-03-29 15:52:00,51.0,23.6,30.03,SSW,208,0.0,4.0,34,0.00,,---,0.00,VWS V14.01,2013-03-29 19:52:00,
2013-03-29 15:57:00,51.1,24.4,30.02,West,266,5.0,5.0,35,0.00,,---,0.00,VWS V14.01,2013-03-29 19:57:00,
2013-03-29 16:03:00,51.3,23.9,30.03,WSW,238,0.0,3.0,34,0.00,,---,0.00,VWS V14.01,2013-03-29 20:03:00,
2013-03-29 16:09:00,51.6,24.2,30.02,WSW,244,1.0,3.0,34,0.00,,---,0.00,VWS V14.01,2013-03-29 20:09:00,
2013-03-29 16:14:00,52.0,24.5,30.02,WNW,291,2.0,4.0,34,0.00,,---,0.00,VWS V14.01,2013-03-29 20:14:00,
2013-03-29 16:20:00,52.2,24.0,30.02,NNW,339,0.0,1.0,33,0.00,,---,0.00,VWS V14.01,2013-03-29 20:20:00,
2013-03-29 16:25:00,52.0,23.8,30.02,NW,323,0.0,0.0,33,0.00,,---,0.00,VWS V14.01,2013-03-29 20:25:00,
2013-03-29 16:32:00,51.7,23.5,30.02,NW,309,2.0,2.0,33,0.00,,---,0.00,VWS V14.01,2013-03-29 20:32:00,
2013-03-29 16:38:00,51.6,24.2,30.02,WSW,244,0.0,3.0,34,0.00,,---,0.00,VWS V14.01,2013-03-29 20:38:00,
2013-03-29 16:44:00,51.6,24.2,30.02,WSW,244,1.0,1.0,34,0.00,,---,0.00,VWS V14.01,2013-03-29 20:44:00,
2013-03-29 16:49:00,51.3,23.2,30.02,SW,229,4.0,6.0,33,0.00,,---,0.00,VWS V14.01,2013-03-29 20:49:00,
2013-03-29 16:54:00,51.1,23.0,30.02,NW,320,0.0,5.0,33,0.00,,---,0.00,VWS V14.01,2013-03-29 20:54:00,
2013-03-29 16:59:00,50.8,23.5,30.02,West,279,1.0,3.0,34,0.00,,---,0.00,VWS V14.01,2013-03-29 20:59:00,
2013-03-29 17:04:00,50.7,23.4,30.03,West,260,2.0,4.0,34,0.00,,---,0.00,VWS V14.01,2013-03-29 21:04:00,
2013-03-29 17:10:00,50.4,24.5,30.03,West,263,3.0,3.0,36,0.00,,---,0.00,VWS V14.01,2013-03-29 21:10:00,
2013-03-29 17:16:00,50.2,23.6,30.03,West,263,3.0,7.0,35,0.00,,---,0.00,VWS V14.01,2013-03-29 21:16:00,
2013-03-29 17:22:00,49.9,24.0,30.03,West,259,0.0,4.0,36,0.00,,---,0.00,VWS V14.01,2013-03-29 21:22:00,
2013-03-29 17:27:00,49.8,23.9,30.03,WSW,243,2.0,4.0,36,0.00,,---,0.00,VWS V14.01,2013-03-29 21:27:00,
2013-03-29 17:32:00,49.8,23.9,30.03,West,271,2.0,3.0,36,0.00,,---,0.00,VWS V14.01,2013-03-29 21:32:00,
2013-03-29 17:38:00,49.6,24.4,30.03,West,281,0.0,0.0,37,0.00,,---,0.00,VWS V14.01,2013-03-29 21:38:00,
2013-03-29 17:43:00,49.6,24.4,30.03,NW,306,1.0,3.0,37,0.00,,---,0.00,VWS V14.01,2013-03-29 21:43:00,
2013-03-29 17:48:00,49.6,25.0,30.03,WSW,237,2.0,2.0,38,0.00,,---,0.00,VWS V14.01,2013-03-29 21:48:00,
2013-03-29 17:53:00,49.5,25.0,30.04,NW,323,0.0,3.0,38,0.00,,---,0.00,VWS V14.01,2013-03-29 21:53:00,
2013-03-29 17:58:00,49.5,25.0,30.04,WNW,298,0.0,1.0,38,0.00,,---,0.00,VWS V14.01,2013-03-29 21:58:00,
2013-03-29 18:03:00,49.4,25.5,30.04,WNW,287,4.0,7.0,39,0.00,,---,0.00,VWS V14.01,2013-03-29 22:03:00,
2013-03-29 18:09:00,48.9,25.0,30.04,West,267,4.0,7.0,39,0.00,,---,0.00,VWS V14.01,2013-03-29 22:09:00,
2013-03-29 18:14:00,48.6,25.4,30.05,WNW,299,6.0,6.0,40,0.00,,---,0.00,VWS V14.01,2013-03-29 22:14:00,
2013-03-29 18:19:00,48.2,25.0,30.05,SW,236,4.0,9.0,40,0.00,,---,0.00,VWS V14.01,2013-03-29 22:19:00,
2013-03-29 18:24:00,47.9,24.8,30.05,WSW,248,3.0,8.0,40,0.00,,---,0.00,VWS V14.01,2013-03-29 22:24:00,
2013-03-29 18:30:00,47.7,25.2,30.05,WNW,302,3.0,4.0,41,0.00,,---,0.00,VWS V14.01,2013-03-29 22:30:00,
2013-03-29 18:35:00,47.6,25.1,30.05,NW,310,3.0,3.0,41,0.00,,---,0.00,VWS V14.01,2013-03-29 22:35:00,
2013-03-29 18:40:00,47.4,24.9,30.05,West,279,2.0,6.0,41,0.00,,---,0.00,VWS V14.01,2013-03-29 22:40:00,
2013-03-29 18:46:00,47.3,26.0,30.05,WNW,284,0.0,2.0,43,0.00,,---,0.00,VWS V14.01,2013-03-29 22:46:00,
2013-03-29 18:51:00,47.1,25.2,30.06,North,5,3.0,6.0,42,0.00,,---,0.00,VWS V14.01,2013-03-29 22:51:00,
2013-03-29 18:57:00,47.0,25.1,30.05,West,280,2.0,3.0,42,0.00,,---,0.00,VWS V14.01,2013-03-29 22:57:00,
2013-03-29 19:02:00,46.8,25.5,30.06,West,274,3.0,3.0,43,0.00,,---,0.00,VWS V14.01,2013-03-29 23:02:00,
2013-03-29 19:07:00,46.7,24.8,30.06,NW,318,3.0,3.0,42,0.00,,---,0.00,VWS V14.01,2013-03-29 23:07:00,
2013-03-29 19:12:00,46.5,24.7,30.06,West,277,2.0,3.0,42,0.00,,---,0.00,VWS V14.01,2013-03-29 23:12:00,
2013-03-29 19:17:00,46.4,25.1,30.06,NW,316,2.0,3.0,43,0.00,,---,0.00,VWS V14.01,2013-03-29 23:17:00,
2013-03-29 19:22:00,46.1,24.3,30.07,WNW,292,3.0,5.0,42,0.00,,---,0.00,VWS V14.01,2013-03-29 23:22:00,
2013-03-29 19:28:00,46.0,24.8,30.07,NW,309,4.0,6.0,43,0.00,,---,0.00,VWS V14.01,2013-03-29 23:28:00,
2013-03-29 19:34:00,45.8,25.1,30.06,WNW,288,0.0,2.0,44,0.00,,---,0.00,VWS V14.01,2013-03-29 23:34:00,
2013-03-29 19:40:00,45.5,24.9,30.07,WNW,286,1.0,1.0,44,0.00,,---,0.00,VWS V14.01,2013-03-29 23:40:00,
2013-03-29 19:45:00,45.4,25.3,30.07,NW,311,3.0,4.0,45,0.00,,---,0.00,VWS V14.01,2013-03-29 23:45:00,
2013-03-29 19:50:00,45.4,25.9,30.07,WNW,298,2.0,5.0,46,0.00,,---,0.00,VWS V14.01,2013-03-29 23:50:00,
2013-03-29 19:55:00,45.2,26.2,30.07,West,269,3.0,4.0,47,0.00,,---,0.00,VWS V14.01,2013-03-29 23:55:00,
2013-03-29 20:00:00,45.1,26.1,30.07,WNW,302,0.0,4.0,47,0.00,,---,0.00,VWS V14.01,2013-03-30 00:00:00,
2013-03-29 20:05:00,45.1,26.1,30.07,West,276,3.0,6.0,47,0.00,,---,0.00,VWS V14.01,2013-03-30 00:05:00,
2013-03-29 20:10:00,44.9,25.9,30.07,WNW,286,1.0,2.0,47,0.00,,---,0.00,VWS V14.01,2013-03-30 00:10:00,
2013-03-29 20:16:00,44.8,26.3,30.07,West,259,2.0,5.0,48,0.00,,---,0.00,VWS V14.01,2013-03-30 00:16:00,
2013-03-29 20:22:00,44.6,26.1,30.08,NW,312,3.0,3.0,48,0.00,,---,0.00,VWS V14.01,2013-03-30 00:22:00,
2013-03-29 20:27:00,44.5,26.0,30.08,NW,312,0.0,1.0,48,0.00,,---,0.00,VWS V14.01,2013-03-30 00:27:00,
2013-03-29 20:32:00,44.3,25.9,30.08,NW,312,0.0,1.0,48,0.00,,---,0.00,VWS V14.01,2013-03-30 00:32:00,
2013-03-29 20:37:00,44.2,25.8,30.08,West,271,3.0,4.0,48,0.00,,---,0.00,VWS V14.01,2013-03-30 00:37:00,
2013-03-29 20:43:00,43.9,26.0,30.08,West,271,0.0,0.0,49,0.00,,---,0.00,VWS V14.01,2013-03-30 00:43:00,
2013-03-29 20:48:00,43.8,25.9,30.08,West,271,0.0,0.0,49,0.00,,---,0.00,VWS V14.01,2013-03-30 00:48:00,
2013-03-29 20:53:00,43.5,26.1,30.08,West,271,0.0,0.0,50,0.00,,---,0.00,VWS V14.01,2013-03-30 00:53:00,
2013-03-29 20:58:00,43.2,25.8,30.09,NW,313,0.0,2.0,50,0.00,,---,0.00,VWS V14.01,2013-03-30 00:58:00,
2013-03-29 21:04:00,42.9,26.0,30.09,West,279,3.0,3.0,51,0.00,,---,0.00,VWS V14.01,2013-03-30 01:04:00,
2013-03-29 21:09:00,42.8,25.9,30.09,West,279,0.0,0.0,51,0.00,,---,0.00,VWS V14.01,2013-03-30 01:09:00,
2013-03-29 21:14:00,42.8,25.9,30.09,West,279,1.0,2.0,51,0.00,,---,0.00,VWS V14.01,2013-03-30 01:14:00,
2013-03-29 21:19:00,42.6,25.8,30.09,NW,318,0.0,1.0,51,0.00,,---,0.00,VWS V14.01,2013-03-30 01:19:00,
2013-03-29 21:24:00,42.6,26.2,30.09,NW,318,0.0,0.0,52,0.00,,---,0.00,VWS V14.01,2013-03-30 01:24:00,
2013-03-29 21:29:00,42.5,26.1,30.09,NNW,331,0.0,1.0,52,0.00,,---,0.00,VWS V14.01,2013-03-30 01:29:00,
2013-03-29 21:34:00,42.3,25.9,30.09,NNW,331,0.0,0.0,52,0.00,,---,0.00,VWS V14.01,2013-03-30 01:34:00,
2013-03-29 21:40:00,42.2,25.9,30.09,NW,315,0.0,0.0,52,0.00,,---,0.00,VWS V14.01,2013-03-30 01:40:00,
2013-03-29 21:45:00,42.1,25.8,30.09,NW,315,0.0,0.0,52,0.00,,---,0.00,VWS V14.01,2013-03-30 01:45:00,
2013-03-29 21:51:00,41.9,26.0,30.09,NW,315,0.0,0.0,53,0.00,,---,0.00,VWS V14.01,2013-03-30 01:51:00,
2013-03-29 21:57:00,41.8,25.9,30.10,NW,315,0.0,1.0,53,0.00,,---,0.00,VWS V14.01,2013-03-30 01:57:00,
2013-03-29 22:02:00,41.8,25.9,30.10,WNW,303,0.0,0.0,53,0.00,,---,0.00,VWS V14.01,2013-03-30 02:02:00,
2013-03-29 22:07:00,41.8,25.9,30.09,West,276,0.0,2.0,53,0.00,,---,0.00,VWS V14.01,2013-03-30 02:07:00,
2013-03-29 22:12:00,41.8,25.9,30.09,West,276,0.0,1.0,53,0.00,,---,0.00,VWS V14.01,2013-03-30 02:12:00,
2013-03-29 22:17:00,41.6,25.8,30.09,West,277,0.0,0.0,53,0.00,,---,0.00,VWS V14.01,2013-03-30 02:17:00,
2013-03-29 22:23:00,41.6,26.2,30.09,West,277,0.0,1.0,54,0.00,,---,0.00,VWS V14.01,2013-03-30 02:23:00,
2013-03-29 22:28:00,41.5,26.1,30.10,West,280,0.0,3.0,54,0.00,,---,0.00,VWS V14.01,2013-03-30 02:28:00,
2013-03-29 22:33:00,41.3,26.4,30.10,West,280,0.0,0.0,55,0.00,,---,0.00,VWS V14.01,2013-03-30 02:33:00,
2013-03-29 22:39:00,41.2,26.3,30.10,West,280,0.0,0.0,55,0.00,,---,0.00,VWS V14.01,2013-03-30 02:39:00,
2013-03-29 22:44:00,41.1,26.2,30.09,West,280,0.0,0.0,55,0.00,,---,0.00,VWS V14.01,2013-03-30 02:44:00,
2013-03-29 22:50:00,40.9,26.0,30.09,West,280,0.0,0.0,55,0.00,,---,0.00,VWS V14.01,2013-03-30 02:50:00,
2013-03-29 22:55:00,40.8,26.3,30.10,North,355,0.0,0.0,56,0.00,,---,0.00,VWS V14.01,2013-03-30 02:55:00,
2013-03-29 23:02:00,40.6,26.1,30.10,NNW,342,0.0,0.0,56,0.00,,---,0.00,VWS V14.01,2013-03-30 03:02:00,
2013-03-29 23:07:00,40.6,26.1,30.10,NNW,342,0.0,0.0,56,0.00,,---,0.00,VWS V14.01,2013-03-30 03:07:00,
2013-03-29 23:13:00,40.5,26.0,30.10,NNW,342,0.0,0.0,56,0.00,,---,0.00,VWS V14.01,2013-03-30 03:13:00,
2013-03-29 23:18:00,40.3,25.9,30.10,NNW,342,0.0,0.0,56,0.00,,---,0.00,VWS V14.01,2013-03-30 03:18:00,
2013-03-29 23:23:00,40.2,26.2,30.10,NNW,342,0.0,0.0,57,0.00,,---,0.00,VWS V14.01,2013-03-30 03:23:00,
2013-03-29 23:28:00,40.1,26.1,30.10,NNW,342,0.0,0.0,57,0.00,,---,0.00,VWS V14.01,2013-03-30 03:28:00,
2013-03-29 23:33:00,39.9,26.3,30.10,NNW,342,0.0,0.0,58,0.00,,---,0.00,VWS V14.01,2013-03-30 03:33:00,
2013-03-29 23:38:00,39.8,26.2,30.10,NNW,342,0.0,0.0,58,0.00,,---,0.00,VWS V14.01,2013-03-30 03:38:00,
2013-03-29 23:44:00,39.5,26.0,30.10,NNW,342,0.0,0.0,58,0.00,,---,0.00,VWS V14.01,2013-03-30 03:44:00,
2013-03-29 23:49:00,39.2,26.1,30.10,NNW,342,0.0,0.0,59,0.00,,---,0.00,VWS V14.01,2013-03-30 03:49:00,
2013-03-29 23:55:00,39.1,26.0,30.10,NNW,342,0.0,0.0,59,0.00,,---,0.00,VWS V14.01,2013-03-30 03:55:00,